• In Hungary
  • List of Countries
  • For 7 days
  • Water Temperature
  • Satellite Maps
  • Weather Map
  • News
  • Weather Widgets
  • user-avatar
    Login

    Hourly Weather Novaya Berezovka

    Today, 22 October, Monday

    Time Temperature Precipitation Wind Pressure Humidity
    00:00 +3°C° 0 mm 1 mps 749 mmHg 88%
    01:00 +3°C° 0 mm 1 mps 749 mmHg 89%
    02:00 +3°C° 0 mm 1 mps 749 mmHg 90%
    03:00 +2°C° 0 mm 1 mps 749 mmHg 90%
    04:00 +2°C° 0 mm 1 mps 749 mmHg 91%
    05:00 +2°C° 0 mm 1 mps 749 mmHg 92%
    06:00 +2°C° 0 mm 1 mps 748 mmHg 89%
    07:00 +3°C° 0 mm 1 mps 748 mmHg 87%
    08:00 +3°C° 0 mm 1 mps 748 mmHg 85%
    09:00 +4°C° 0 mm 2 mps 748 mmHg 79%
    10:00 +5°C° 0 mm 2 mps 747 mmHg 72%
    11:00 +7°C° 0 mm 2 mps 747 mmHg 66%
    12:00 +7°C° 0 mm 3 mps 746 mmHg 64%
    13:00 +8°C° 0 mm 3 mps 746 mmHg 62%
    14:00 +8°C° 0 mm 3 mps 745 mmHg 60%
    15:00 +7°C° 0 mm 3 mps 745 mmHg 66%
    16:00 +5°C° 0 mm 3 mps 744 mmHg 72%
    17:00 +5°C° 0 mm 2 mps 743 mmHg 78%
    18:00 +3°C° 0 mm 3 mps 743 mmHg 79%
    19:00 +3°C° 0 mm 3 mps 743 mmHg 80%
    20:00 +3°C° 0 mm 3 mps 742 mmHg 81%
    21:00 +3°C° 0 mm 3 mps 742 mmHg 82%
    22:00 +2°C° 0 mm 3 mps 741 mmHg 83%
    23:00 +2°C° 0 mm 3 mps 741 mmHg 84%

    Tomorrow, 23 October, Tuesday

    Time Temperature Precipitation Wind Pressure Humidity
    00:00 +2°C° 0 mm 3 mps 740 mmHg 86%
    01:00 +2°C° 0 mm 3 mps 739 mmHg 88%
    02:00 +2°C° 0 mm 3 mps 739 mmHg 90%
    03:00 +2°C° 0.2 mm 3 mps 738 mmHg 91%
    04:00 +2°C° 0.2 mm 3 mps 738 mmHg 92%
    05:00 +2°C° 0.2 mm 3 mps 737 mmHg 94%
    06:00 +2°C° 0.4 mm 3 mps 737 mmHg 93%
    07:00 +3°C° 0.4 mm 3 mps 737 mmHg 93%
    08:00 +4°C° 0.4 mm 2 mps 737 mmHg 93%
    09:00 +5°C° 0.1 mm 2 mps 736 mmHg 88%
    10:00 +5°C° 0.1 mm 3 mps 736 mmHg 83%
    11:00 +5°C° 0.1 mm 3 mps 736 mmHg 78%
    12:00 +7°C° 0 mm 2 mps 735 mmHg 73%
    13:00 +7°C° 0 mm 2 mps 735 mmHg 68%
    14:00 +7°C° 0 mm 2 mps 734 mmHg 64%
    15:00 +6°C° 0 mm 2 mps 734 mmHg 68%
    16:00 +6°C° 0 mm 1 mps 733 mmHg 73%
    17:00 +5°C° 0 mm 1 mps 733 mmHg 77%
    18:00 +5°C° 0 mm 1 mps 732 mmHg 79%
    19:00 +4°C° 0 mm 2 mps 731 mmHg 80%
    20:00 +3°C° 0 mm 2 mps 731 mmHg 81%
    21:00 +3°C° 0 mm 2 mps 730 mmHg 83%
    22:00 +3°C° 0 mm 2 mps 729 mmHg 84%
    23:00 +1°C° 0 mm 3 mps 728 mmHg 86%

    Day after tomorrow, 24 October, Wednesday

    Time Temperature Precipitation Wind Pressure Humidity
    00:00 +1°C° 0 mm 3 mps 727 mmHg 86%
    01:00 +1°C° 0 mm 3 mps 726 mmHg 86%
    02:00 0°C° 0 mm 4 mps 725 mmHg 86%
    03:00 0°C° 0.1 mm 4 mps 724 mmHg 86%
    04:00 0°C° 0.1 mm 5 mps 723 mmHg 85%
    05:00 0°C° 0.1 mm 5 mps 722 mmHg 85%
    06:00 +1°C° 0.4 mm 5 mps 721 mmHg 85%
    07:00 +1°C° 0.4 mm 6 mps 720 mmHg 84%
    08:00 +2°C° 0.4 mm 6 mps 719 mmHg 83%
    09:00 +2°C° 0.4 mm 6 mps 718 mmHg 84%
    10:00 +2°C° 0.4 mm 6 mps 718 mmHg 84%
    11:00 +3°C° 0.4 mm 6 mps 717 mmHg 85%
    12:00 +3°C° 0.4 mm 5 mps 717 mmHg 85%
    13:00 +4°C° 0.4 mm 4 mps 717 mmHg 86%
    14:00 +4°C° 0.4 mm 4 mps 717 mmHg 87%
    15:00 +4°C° 0.3 mm 3 mps 717 mmHg 88%
    16:00 +4°C° 0.3 mm 3 mps 717 mmHg 90%
    17:00 +5°C° 0.3 mm 2 mps 717 mmHg 92%
    18:00 +5°C° 0.1 mm 2 mps 717 mmHg 93%
    19:00 +4°C° 0.1 mm 2 mps 717 mmHg 94%
    20:00 +4°C° 0.1 mm 2 mps 717 mmHg 94%
    21:00 +3°C° 0 mm 2 mps 717 mmHg 95%
    22:00 +3°C° 0 mm 2 mps 718 mmHg 95%
    23:00 +3°C° 0 mm 2 mps 718 mmHg 95%

    25 October, Thursday

    Time Temperature Precipitation Wind Pressure Humidity
    00:00 +3°C° 0.3 mm 2 mps 718 mmHg 95%
    01:00 +3°C° 0.3 mm 2 mps 718 mmHg 96%
    02:00 +2°C° 0.3 mm 3 mps 718 mmHg 96%
    03:00 +1°C° 0.9 mm 4 mps 718 mmHg 94%
    04:00 +2°C° 0.9 mm 5 mps 718 mmHg 93%
    05:00 +2°C° 0.9 mm 6 mps 718 mmHg 92%
    06:00 +2°C° 1.7 mm 6 mps 718 mmHg 90%
    07:00 +2°C° 1.7 mm 7 mps 718 mmHg 89%
    08:00 +3°C° 1.7 mm 7 mps 718 mmHg 87%
    09:00 +3°C° 1.9 mm 7 mps 719 mmHg 86%
    10:00 +1°C° 1.9 mm 8 mps 719 mmHg 85%
    11:00 +1°C° 1.9 mm 8 mps 719 mmHg 85%
    12:00 +1°C° 1.3 mm 8 mps 719 mmHg 84%
    13:00 +1°C° 1.3 mm 8 mps 719 mmHg 83%
    14:00 +1°C° 1.3 mm 8 mps 720 mmHg 82%
    15:00 +1°C° 1 mm 9 mps 720 mmHg 81%
    16:00 +1°C° 1 mm 9 mps 721 mmHg 79%
    17:00 0°C° 1 mm 9 mps 721 mmHg 78%
    18:00 0°C° 0.2 mm 8 mps 722 mmHg 78%
    19:00 -1°C° 0.2 mm 8 mps 723 mmHg 78%
    20:00 -1°C° 0.2 mm 7 mps 723 mmHg 78%
    21:00 -1°C° 0 mm 7 mps 724 mmHg 80%
    22:00 -2°C° 0 mm 6 mps 724 mmHg 81%
    23:00 -2°C° 0 mm 6 mps 725 mmHg 83%

    26 October, Friday

    Time Temperature Precipitation Wind Pressure Humidity
    00:00 -1°C° 0 mm 5 mps 725 mmHg 85%
    01:00 -1°C° 0 mm 5 mps 726 mmHg 88%
    02:00 -2°C° 0 mm 4 mps 726 mmHg 90%
    03:00 -1°C° 0 mm 4 mps 727 mmHg 90%
    04:00 -1°C° 0 mm 4 mps 728 mmHg 91%
    05:00 0°C° 0 mm 4 mps 728 mmHg 91%
    06:00 0°C° 0 mm 4 mps 729 mmHg 90%
    07:00 0°C° 0 mm 4 mps 729 mmHg 89%
    08:00 0°C° 0 mm 4 mps 730 mmHg 89%
    09:00 0°C° 0 mm 4 mps 730 mmHg 87%
    10:00 +1°C° 0 mm 4 mps 730 mmHg 85%
    11:00 +1°C° 0 mm 4 mps 731 mmHg 82%
    12:00 +1°C° 0 mm 4 mps 731 mmHg 80%
    13:00 +3°C° 0 mm 4 mps 732 mmHg 78%
    14:00 +4°C° 0 mm 4 mps 732 mmHg 76%
    15:00 +3°C° 0 mm 4 mps 732 mmHg 80%
    16:00 +3°C° 0 mm 3 mps 733 mmHg 84%
    17:00 +3°C° 0 mm 3 mps 733 mmHg 87%
    18:00 +2°C° 0 mm 3 mps 734 mmHg 90%
    19:00 +3°C° 0 mm 2 mps 734 mmHg 92%
    20:00 +2°C° 0 mm 2 mps 734 mmHg 94%
    21:00 +2°C° 0 mm 2 mps 735 mmHg 94%
    22:00 +1°C° 0 mm 2 mps 735 mmHg 94%
    23:00 +1°C° 0 mm 2 mps 735 mmHg 95%

    27 October, Saturday

    Time Temperature Precipitation Wind Pressure Humidity
    00:00 +1°C° 0 mm 2 mps 735 mmHg 95%
    01:00 +1°C° 0 mm 2 mps 736 mmHg 95%
    02:00 +1°C° 0 mm 2 mps 736 mmHg 95%
    03:00 +1°C° 0 mm 3 mps 735 mmHg 95%
    04:00 +1°C° 0 mm 3 mps 735 mmHg 95%
    05:00 +1°C° 0 mm 4 mps 735 mmHg 94%
    06:00 +3°C° 0.1 mm 4 mps 735 mmHg 94%
    07:00 +3°C° 0.1 mm 5 mps 735 mmHg 93%
    08:00 +5°C° 0.1 mm 5 mps 735 mmHg 93%
    09:00 +5°C° 0 mm 5 mps 735 mmHg 90%
    10:00 +5°C° 0 mm 6 mps 735 mmHg 87%
    11:00 +7°C° 0 mm 6 mps 735 mmHg 84%
    12:00 +7°C° 0 mm 6 mps 734 mmHg 84%
    13:00 +7°C° 0 mm 6 mps 734 mmHg 84%
    14:00 +7°C° 0 mm 5 mps 734 mmHg 84%
    15:00 +7°C° 0 mm 5 mps 734 mmHg 85%
    16:00 +7°C° 0 mm 4 mps 734 mmHg 86%
    17:00 +6°C° 0 mm 4 mps 734 mmHg 88%
    18:00 +6°C° 0 mm 4 mps 734 mmHg 88%
    19:00 +6°C° 0 mm 4 mps 734 mmHg 89%
    20:00 +7°C° 0 mm 3 mps 734 mmHg 90%
    21:00 +7°C° 0 mm 3 mps 734 mmHg 91%
    22:00 +7°C° 0 mm 3 mps 734 mmHg 92%
    23:00 +7°C° 0 mm 3 mps 734 mmHg 93%
    Show more